User: anonymous   Login
Location: Cactus School
(34.5700°N, 118.0931°W)
Time: 00:59:12
(UTC-07:00)
Language:

DIWATA 2B (PO-101) - Orbit

View from above orbital plane
View from above orbital plane
View from above satellite
View from above satellite

Ground track
Ground track

The orbit data is extracted from the following two-line orbital elements,

1 43678U 18084H   24146.85660600  .00003456  00000-0  31969-3 0  9996
2 43678  98.0698 304.1959 0010590 103.8057 256.4341 14.95207166303585
Epoch (UTC): 25 May 2024 20:33:30
Eccentricity: 0.0010590
inclination: 98.0698°
perigee height: 574 km
apogee height: 589 km
right ascension of ascending node: 304.1959°
argument of perigee: 103.8057°
revolutions per day: 14.95207166
mean anomaly at epoch: 256.4341°
orbit number at epoch: 30358

The dashed part of the orbit path shows where the satellite is in the earth's shadow,  

DLR